カタログに戻る

COSMOS 1191 DEB

LostHEO
NORAD 32994·DEBRIS·🇷🇺 Russia

打ち上げ Jul 2, 1980 から Plesetsk Cosmodrome

Loading…

次のパス (今後24時間)

TLE

古いSource: Space-Track

元期: Sep 26, 2011, 03:10 UTC

1 32994U 80057M   11269.13248223  .00000797  00000-0  00000+0 0  9993
2 32994  66.7377  96.2986 5672539 113.2276   9.5994  1.99975851    04

AllMySatでCOSMOS 1191 DEBをリアルタイム追跡

Download on the App Store